Simultaneous Nadir Overpasses (SNOs) Predictions

Prediction of SNOs between METOP-B and TERRA Satellite Orbit:

Table of predicted SNOs for the next 14.0 days since TLE Epoch: 4/26/2013
Index Date (METOP-B) Time (METOP-B) Lat,Lon (METOP-B) SZA (METOP-B ) Date (TERRA) Time (TERRA) Lat,Lon (TERRA) SZA (TERRA ) Distance(km) Time Diff (sec)
1 04/27/2013 07:48:06 81.29, 109.57 70.23 04/27/2013 07:49:05 81.28, 109.63 70.26 1.12 59
2 04/27/2013 08:38:46 -81.29, -82.57 109.72 04/27/2013 08:38:31 -81.30, -82.47 109.71 1.78 15
3 04/30/2013 03:22:30 81.29, 176.40 69.43 04/30/2013 03:23:18 81.29, 176.23 69.43 2.84 48
4 04/30/2013 04:13:11 -81.30, -16.13 110.57 04/30/2013 04:12:45 -81.29, -16.21 110.60 1.66 26
5 05/02/2013 22:56:55 81.29,-117.18 68.60 05/02/2013 22:57:31 81.30,-117.25 68.61 1.16 36
6 05/02/2013 23:47:36 -81.30, 50.28 111.40 05/02/2013 23:46:58 -81.29, 50.33 111.41 0.94 38
7 05/05/2013 18:31:20 81.29, -50.79 67.80 05/05/2013 18:31:44 81.30, -50.81 67.81 0.43 24
8 05/05/2013 19:22:01 -81.30, 116.66 112.20 05/05/2013 19:21:11 -81.29, 116.79 112.21 2.27 50
9 05/08/2013 14:05:44 81.29, 15.58 67.03 05/08/2013 14:05:56 81.29, 15.54 67.03 0.66 12




NCC Satellite Simultaneous Nadir Overpasses (SNOs) Prediction Service
